Location: Peterborough
(44.3091°N, 78.3197°W)
Time: 17:11:38
(UTC-04:00)

Transit 4A - Pass Details

Date: 27 March 2023
Orbit: 864 x 980 km, 66.8° (Epoch: 04 June)

Event Time Altitude Azimuth Distance (km) Brightness Sun altitude
Rises 12:46:51 0° 330° (NNW) 3,528 10.5 47.8°
Reaches altitude 10° 12:52:13 10° 10° (N) 2,621 10.0 48.0°
Maximum altitude 12:53:17 10° 20° (NNE) 2,596 10.0 48.0°
Drops below altitude 10° 12:54:21 10° 31° (NNE) 2,634 10.1 48.0°
Sets 12:59:50 0° 70° (ENE) 3,613 10.9 48.2°
